| time (UTC) | temp F | wind direction | speed MPH | gust MPH | rain 1hr in | rain 24hr in | rain mn in | humidity % | barometer mb |
| 20260509004624 | 44 | 43 | 0.0 | 0.0 | 0.00 | 0.00 | 0.00 | 48 | 1010.0 |
| 20260509004122 | 44 | 43 | 0.0 | 0.0 | 0.00 | 0.00 | 0.00 | 47 | 1010.0 |
| 20260509003623 | 45 | 43 | 0.0 | 0.0 | 0.00 | 0.00 | 0.00 | 46 | 1010.0 |
| 20260509003124 | 46 | 43 | 0.0 | 0.0 | 0.00 | 0.00 | 0.00 | 47 | 1009.9 |
| 20260509002622 | 46 | 43 | 0.0 | 0.0 | 0.00 | 0.00 | 0.00 | 45 | 1009.8 |
| 20260509002122 | 47 | 43 | 0.0 | 0.0 | 0.00 | 0.00 | 0.00 | 44 | 1009.8 |
| 20260509001624 | 48 | 43 | 0.0 | 0.0 | 0.00 | 0.00 | 0.00 | 43 | 1009.7 |
| 20260509001123 | 48 | 43 | 0.0 | 0.0 | 0.00 | 0.00 | 0.00 | 41 | 1009.6 |
| 20260509000624 | 49 | 43 | 0.0 | 0.0 | 0.00 | 0.00 | 0.00 | 41 | 1009.6 |
| 20260509000122 | 49 | 43 | 0.0 | 0.0 | 0.00 | 0.00 | 0.00 | 37 | 1009.6 |
| 20260508235840 | 50 | 43 | 0.0 | 0.0 | 0.00 | 0.00 | 0.00 | 36 | 1009.5 |
| 20260508235123 | 50 | 43 | 0.0 | 0.0 | 0.00 | 0.00 | 0.00 | 34 | 1009.5 |
| 20260508234849 | 51 | 43 | 0.0 | 0.0 | 0.00 | 0.00 | 0.00 | 32 | 1009.4 |
| 20260508234343 | 51 | 43 | 0.0 | 0.0 | 0.00 | 0.00 | 0.00 | 34 | 1009.3 |
| 20260508233843 | 52 | 43 | 0.0 | 0.0 | 0.00 | 0.00 | 0.00 | 32 | 1009.3 |
| 20260508233119 | 52 | 43 | 0.0 | 0.0 | 0.00 | 0.00 | 0.00 | 31 | 1009.2 |
| 20260508232618 | 52 | 43 | 0.0 | 0.0 | 0.00 | 0.00 | 0.00 | 30 | 1009.2 |
| 20260508232118 | 53 | 43 | 0.0 | 0.0 | 0.00 | 0.00 | 0.00 | 29 | 1009.2 |
| 20260508231617 | 53 | 43 | 0.0 | 0.0 | 0.00 | 0.00 | 0.00 | 29 | 1009.1 |
| 20260508231114 | 53 | 44 | 0.0 | 0.0 | 0.00 | 0.00 | 0.00 | 30 | 1009.1 |
| 20260508230615 | 53 | 329 | 0.0 | 0.0 | 0.00 | 0.00 | 0.00 | 31 | 1009.0 |
| 20260508230109 | 54 | 329 | 0.0 | 0.0 | 0.00 | 0.00 | 0.00 | 29 | 1009.0 |
| 20260508225833 | 54 | 42 | 0.0 | 0.0 | 0.00 | 0.00 | 0.00 | 30 | 1009.0 |
| 20260508225322 | 54 | 42 | 0.0 | 0.0 | 0.00 | 0.00 | 0.00 | 28 | 1009.1 |
| 20260508224816 | 54 | 42 | 0.0 | 0.0 | 0.00 | 0.00 | 0.00 | 28 | 1008.9 |
| 20260508224045 | 54 | 42 | 0.0 | 0.0 | 0.00 | 0.00 | 0.00 | 27 | 1008.7 |
| 20260508223539 | 54 | 42 | 0.0 | 0.0 | 0.00 | 0.00 | 0.00 | 28 | 1008.9 |
| 20260508223255 | 55 | 42 | 0.0 | 0.0 | 0.00 | 0.00 | 0.00 | 29 | 1008.7 |
| 20260508222528 | 55 | 42 | 0.0 | 0.0 | 0.00 | 0.00 | 0.00 | 27 | 1008.7 |
| 20260508222029 | 55 | 42 | 0.0 | 0.0 | 0.00 | 0.00 | 0.00 | 25 | 1008.6 |
| 20260508221528 | 56 | 216 | 0.0 | 0.0 | 0.00 | 0.00 | 0.00 | 25 | 1008.6 |
| 20260508221028 | 56 | 216 | 0.0 | 4.0 | 0.00 | 0.00 | 0.00 | 24 | 1008.6 |
| 20260508220529 | 56 | 238 | 0.0 | 4.0 | 0.00 | 0.00 | 0.00 | 27 | 1008.5 |
| 20260508220249 | 56 | 244 | 0.0 | 1.0 | 0.00 | 0.00 | 0.00 | 26 | 1008.5 |
| 20260508215530 | 56 | 244 | 0.0 | 2.0 | 0.00 | 0.00 | 0.00 | 28 | 1008.5 |
| 20260508215028 | 56 | 244 | 0.0 | 2.0 | 0.00 | 0.00 | 0.00 | 25 | 1008.5 |
| 20260508214524 | 57 | 269 | 1.0 | 6.0 | 0.00 | 0.00 | 0.00 | 24 | 1008.4 |
| 20260508214025 | 58 | 33 | 1.0 | 6.0 | 0.00 | 0.00 | 0.00 | 25 | 1008.4 |
| 20260508213524 | 58 | 57 | 1.0 | 4.0 | 0.00 | 0.00 | 0.00 | 24 | 1008.4 |
| 20260508213025 | 58 | 5 | 1.0 | 4.0 | 0.00 | 0.00 | 0.00 | 24 | 1008.3 |
| 20260508212525 | 58 | 30 | 1.0 | 4.0 | 0.00 | 0.00 | 0.00 | 24 | 1008.3 |
| 20260508212026 | 58 | 265 | 2.0 | 4.0 | 0.00 | 0.00 | 0.00 | 24 | 1008.3 |
| 20260508211524 | 58 | 306 | 2.0 | 8.0 | 0.00 | 0.00 | 0.00 | 25 | 1008.3 |
| 20260508211243 | 58 | 233 | 1.0 | 8.0 | 0.00 | 0.00 | 0.00 | 24 | 1008.3 |
| 20260508210523 | 58 | 218 | 0.0 | 4.0 | 0.00 | 0.00 | 0.00 | 26 | 1008.2 |
| 20260508210023 | 57 | 346 | 1.0 | 3.0 | 0.00 | 0.00 | 0.00 | 28 | 1008.2 |
| 20260508205517 | 56 | 220 | 1.0 | 3.0 | 0.00 | 0.00 | 0.00 | 28 | 1008.2 |
| 20260508205232 | 56 | 285 | 1.0 | 4.0 | 0.00 | 0.00 | 0.00 | 28 | 1008.2 |
| 20260508204505 | 56 | 309 | 1.0 | 4.0 | 0.00 | 0.00 | 0.00 | 27 | 1008.1 |
| 20260508203959 | 56 | 340 | 2.0 | 4.0 | 0.00 | 0.00 | 0.00 | 28 | 1008.1 |
| 20260508203453 | 55 | 309 | 2.0 | 5.0 | 0.00 | 0.00 | 0.00 | 29 | 1008.1 |
| 20260508203040 | 55 | 32 | 2.0 | 5.0 | 0.00 | 0.00 | 0.00 | 28 | 1008.1 |
| 20260508201935 | 55 | 57 | 1.0 | 4.0 | 0.00 | 0.00 | 0.00 | 28 | 1008.0 |
| 20260508201429 | 56 | 36 | 1.0 | 4.0 | 0.00 | 0.00 | 0.00 | 28 | 1007.9 |
| 20260508201144 | 56 | 312 | 1.0 | 5.0 | 0.00 | 0.00 | 0.00 | 29 | 1007.9 |
| 20260508200417 | 55 | 317 | 1.0 | 5.0 | 0.00 | 0.00 | 0.00 | 29 | 1007.8 |
| 20260508195911 | 55 | 247 | 1.0 | 4.0 | 0.00 | 0.00 | 0.00 | 29 | 1007.7 |
| 20260508195406 | 55 | 298 | 1.0 | 7.0 | 0.00 | 0.00 | 0.00 | 29 | 1007.7 |
| 20260508194859 | 55 | 186 | 1.0 | 7.0 | 0.00 | 0.00 | 0.00 | 29 | 1007.5 |
| 20260508194354 | 55 | 266 | 1.0 | 3.0 | 0.00 | 0.00 | 0.00 | 30 | 1007.6 |
| 20260508193848 | 55 | 266 | 1.0 | 4.0 | 0.00 | 0.00 | 0.00 | 29 | 1007.4 |
| 20260508193342 | 54 | 265 | 1.0 | 4.0 | 0.00 | 0.00 | 0.00 | 29 | 1007.5 |
| 20260508192835 | 54 | 218 | 1.0 | 5.0 | 0.00 | 0.00 | 0.00 | 29 | 1007.5 |
| 20260508192329 | 55 | 215 | 1.0 | 5.0 | 0.00 | 0.00 | 0.00 | 29 | 1007.6 |
| 20260508191823 | 55 | 301 | 0.0 | 0.0 | 0.00 | 0.00 | 0.00 | 28 | 1007.4 |
| 20260508191317 | 55 | 263 | 0.0 | 0.0 | 0.00 | 0.00 | 0.00 | 27 | 1007.3 |
| 20260508190811 | 56 | 325 | 0.0 | 0.0 | 0.00 | 0.00 | 0.00 | 28 | 1007.3 |
| 20260508190305 | 56 | 186 | 0.0 | 0.0 | 0.00 | 0.00 | 0.00 | 26 | 1007.2 |
| 20260508185759 | 56 | 263 | 0.0 | 0.0 | 0.00 | 0.00 | 0.00 | 26 | 1007.2 |
| 20260508185740 | 57 | 260 | 0.0 | 0.0 | 0.00 | 0.00 | 0.00 | 26 | 1007.1 |
| 20260508184747 | 57 | 279 | 0.0 | 0.0 | 0.00 | 0.00 | 0.00 | 25 | 1007.2 |
| 20260508184241 | 57 | 217 | 0.0 | 0.0 | 0.00 | 0.00 | 0.00 | 26 | 1007.0 |
| 20260508183735 | 57 | 338 | 0.0 | 0.0 | 0.00 | 0.00 | 0.00 | 27 | 1007.0 |
| 20260508183229 | 56 | 225 | 0.0 | 0.0 | 0.00 | 0.00 | 0.00 | 26 | 1007.0 |
| 20260508182945 | 56 | 264 | 0.0 | 0.0 | 0.00 | 0.00 | 0.00 | 26 | 1007.1 |
| 20260508182217 | 56 | 43 | 0.0 | 0.0 | 0.00 | 0.00 | 0.00 | 27 | 1007.1 |
| 20260508181711 | 56 | 227 | 0.0 | 0.0 | 0.00 | 0.00 | 0.00 | 28 | 1007.2 |
| 20260508181204 | 56 | 183 | 0.0 | 0.0 | 0.00 | 0.00 | 0.00 | 29 | 1007.1 |
| 20260508180659 | 56 | 309 | 0.0 | 0.0 | 0.00 | 0.00 | 0.00 | 27 | 1007.2 |
| 20260508180153 | 56 | 250 | 0.0 | 0.0 | 0.00 | 0.00 | 0.00 | 27 | 1007.1 |
| 20260508175646 | 57 | 305 | 0.0 | 0.0 | 0.00 | 0.00 | 0.00 | 29 | 1007.1 |
| 20260508175141 | 57 | 234 | 0.0 | 0.0 | 0.00 | 0.00 | 0.00 | 26 | 1007.1 |
| 20260508174635 | 57 | 233 | 0.0 | 0.0 | 0.00 | 0.00 | 0.00 | 28 | 1007.0 |
| 20260508174128 | 57 | 232 | 0.0 | 0.0 | 0.00 | 0.00 | 0.00 | 26 | 1006.9 |
| 20260508173623 | 57 | 266 | 0.0 | 0.0 | 0.00 | 0.00 | 0.00 | 27 | 1007.0 |
| 20260508173335 | 57 | 304 | 0.0 | 0.0 | 0.00 | 0.00 | 0.00 | 27 | 1007.0 |
| 20260508172612 | 57 | 177 | 0.0 | 0.0 | 0.00 | 0.00 | 0.00 | 27 | 1007.0 |
| 20260508172105 | 57 | 181 | 0.0 | 0.0 | 0.00 | 0.00 | 0.00 | 27 | 1007.1 |
| 20260508171559 | 57 | 328 | 0.0 | 0.0 | 0.00 | 0.00 | 0.00 | 28 | 1007.0 |
| 20260508171053 | 57 | 344 | 0.0 | 0.0 | 0.00 | 0.00 | 0.00 | 30 | 1006.9 |
| 20260508171032 | 57 | 344 | 0.0 | 0.0 | 0.00 | 0.00 | 0.00 | 30 | 1006.9 |
| 20260508170041 | 57 | 246 | 0.0 | 0.0 | 0.00 | 0.00 | 0.00 | 28 | 1007.0 |
| 20260508165535 | 57 | 346 | 0.0 | 0.0 | 0.00 | 0.00 | 0.00 | 29 | 1006.9 |
| 20260508165030 | 57 | 340 | 0.0 | 0.0 | 0.00 | 0.00 | 0.00 | 29 | 1007.0 |
| 20260508164743 | 56 | 279 | 0.0 | 0.0 | 0.00 | 0.00 | 0.00 | 33 | 1007.0 |
| 20260508164017 | 55 | 315 | 0.0 | 0.0 | 0.00 | 0.00 | 0.00 | 32 | 1007.0 |
| 20260508163511 | 55 | 355 | 0.0 | 0.0 | 0.00 | 0.00 | 0.00 | 32 | 1007.0 |
| 20260508163005 | 55 | 27 | 0.0 | 0.0 | 0.00 | 0.00 | 0.00 | 31 | 1007.1 |
| 20260508162459 | 56 | 221 | 0.0 | 0.0 | 0.00 | 0.00 | 0.00 | 31 | 1007.1 |
| 20260508162219 | 56 | 17 | 0.0 | 0.0 | 0.00 | 0.00 | 0.00 | 30 | 1007.1 |
| 20260508161448 | 56 | 225 | 0.0 | 0.0 | 0.00 | 0.00 | 0.00 | 31 | 1007.1 |
| 20260508160941 | 55 | 5 | 0.0 | 0.0 | 0.00 | 0.00 | 0.00 | 32 | 1007.2 |
| 20260508160435 | 55 | 246 | 0.0 | 0.0 | 0.00 | 0.00 | 0.00 | 29 | 1007.1 |
| 20260508155929 | 55 | 338 | 0.0 | 0.0 | 0.00 | 0.00 | 0.00 | 29 | 1007.1 |
| 20260508155423 | 55 | 26 | 0.0 | 0.0 | 0.00 | 0.00 | 0.00 | 30 | 1007.0 |
| 20260508154923 | 55 | 26 | 0.0 | 0.0 | 0.00 | 0.00 | 0.00 | 29 | 1007.2 |
| 20260508154902 | 55 | 26 | 0.0 | 0.0 | 0.00 | 0.00 | 0.00 | 28 | 1007.2 |
| 20260508153919 | 55 | 0 | 0.0 | 0.0 | 0.00 | 0.00 | 0.00 | 28 | 1007.3 |
| 20260508153638 | 55 | 19 | 0.0 | 0.0 | 0.00 | 0.00 | 0.00 | 28 | 1007.3 |
| 20260508153133 | 55 | 312 | 0.0 | 0.0 | 0.00 | 0.00 | 0.00 | 29 | 1007.3 |
| 20260508152417 | 56 | 312 | 0.0 | 0.0 | 0.00 | 0.00 | 0.00 | 27 | 1007.2 |
| 20260508152137 | 56 | 255 | 0.0 | 0.0 | 0.00 | 0.00 | 0.00 | 26 | 1007.1 |
| 20260508151413 | 57 | 290 | 0.0 | 0.0 | 0.00 | 0.00 | 0.00 | 26 | 1007.1 |
| 20260508150912 | 57 | 240 | 0.0 | 0.0 | 0.00 | 0.00 | 0.00 | 26 | 1007.1 |
| 20260508150637 | 58 | 302 | 0.0 | 0.0 | 0.00 | 0.00 | 0.00 | 25 | 1007.1 |
| 20260508145911 | 58 | 201 | 0.0 | 0.0 | 0.00 | 0.00 | 0.00 | 26 | 1007.1 |
| 20260508145639 | 57 | 221 | 0.0 | 0.0 | 0.00 | 0.00 | 0.00 | 28 | 1007.1 |
| 20260508144910 | 58 | 223 | 0.0 | 0.0 | 0.00 | 0.00 | 0.00 | 25 | 1007.2 |
| 20260508144411 | 58 | 242 | 0.0 | 0.0 | 0.00 | 0.00 | 0.00 | 26 | 1007.1 |
| 20260508143912 | 58 | 215 | 0.0 | 0.0 | 0.00 | 0.00 | 0.00 | 26 | 1007.2 |
| 20260508143406 | 57 | 225 | 0.0 | 0.0 | 0.00 | 0.00 | 0.00 | 30 | 1007.0 |
| 20260508142906 | 56 | 355 | 0.0 | 0.0 | 0.00 | 0.00 | 0.00 | 26 | 1007.3 |
| 20260508142407 | 55 | 319 | 0.0 | 0.0 | 0.00 | 0.00 | 0.00 | 24 | 1007.2 |
| 20260508141906 | 55 | 186 | 0.0 | 0.0 | 0.00 | 0.00 | 0.00 | 29 | 1007.3 |
| 20260508141405 | 55 | 220 | 0.0 | 0.0 | 0.00 | 0.00 | 0.00 | 31 | 1007.2 |
| 20260508140906 | 55 | 215 | 0.0 | 0.0 | 0.00 | 0.00 | 0.00 | 30 | 1007.3 |
| 20260508140405 | 54 | 49 | 0.0 | 0.0 | 0.00 | 0.00 | 0.00 | 31 | 1007.4 |
| 20260508135905 | 54 | 38 | 0.0 | 0.0 | 0.00 | 0.00 | 0.00 | 32 | 1007.6 |
| 20260508135407 | 54 | 36 | 0.0 | 0.0 | 0.00 | 0.00 | 0.00 | 31 | 1007.6 |
| 20260508135125 | 54 | 223 | 0.0 | 0.0 | 0.00 | 0.00 | 0.00 | 30 | 1007.7 |
| 20260508134401 | 54 | 73 | 0.0 | 0.0 | 0.00 | 0.00 | 0.00 | 32 | 1007.6 |
| 20260508133902 | 54 | 57 | 0.0 | 0.0 | 0.00 | 0.00 | 0.00 | 33 | 1007.7 |
| 20260508133402 | 54 | 239 | 0.0 | 0.0 | 0.00 | 0.00 | 0.00 | 32 | 1007.7 |
| 20260508132903 | 53 | 123 | 0.0 | 0.0 | 0.00 | 0.00 | 0.00 | 33 | 1007.7 |
| 20260508132402 | 53 | 5 | 0.0 | 0.0 | 0.00 | 0.00 | 0.00 | 34 | 1007.7 |
| 20260508131902 | 53 | 251 | 0.0 | 0.0 | 0.00 | 0.00 | 0.00 | 35 | 1007.8 |
| 20260508131402 | 53 | 190 | 0.0 | 0.0 | 0.00 | 0.00 | 0.00 | 33 | 1007.8 |
| 20260508130904 | 53 | 87 | 0.0 | 0.0 | 0.00 | 0.00 | 0.00 | 34 | 1007.8 |
| 20260508130358 | 52 | 88 | 0.0 | 0.0 | 0.00 | 0.00 | 0.00 | 36 | 1007.9 |
| 20260508125859 | 52 | 355 | 0.0 | 0.0 | 0.00 | 0.00 | 0.00 | 34 | 1007.8 |
| 20260508125357 | 52 | 18 | 0.0 | 0.0 | 0.00 | 0.00 | 0.00 | 36 | 1007.8 |
| 20260508124856 | 52 | 345 | 0.0 | 0.0 | 0.00 | 0.00 | 0.00 | 35 | 1008.0 |
| 20260508124355 | 51 | 218 | 0.0 | 0.0 | 0.00 | 0.00 | 0.00 | 36 | 1008.0 |
| 20260508123853 | 51 | 229 | 0.0 | 0.0 | 0.00 | 0.00 | 0.00 | 37 | 1008.0 |
| 20260508123351 | 51 | 229 | 0.0 | 0.0 | 0.00 | 0.00 | 0.00 | 37 | 1007.9 |
| 20260508122849 | 50 | 286 | 0.0 | 0.0 | 0.00 | 0.00 | 0.00 | 37 | 1007.9 |
| 20260508122349 | 50 | 289 | 0.0 | 0.0 | 0.00 | 0.00 | 0.00 | 40 | 1008.0 |
| 20260508121849 | 50 | 255 | 0.0 | 0.0 | 0.00 | 0.00 | 0.00 | 39 | 1008.1 |
| 20260508121348 | 49 | 222 | 0.0 | 0.0 | 0.00 | 0.00 | 0.00 | 41 | 1008.0 |
| 20260508120846 | 48 | 229 | 0.0 | 1.0 | 0.00 | 0.00 | 0.00 | 42 | 1008.1 |
| 20260508120343 | 48 | 255 | 0.0 | 1.0 | 0.00 | 0.00 | 0.00 | 44 | 1008.0 |
| 20260508115843 | 47 | 257 | 0.0 | 1.0 | 0.00 | 0.00 | 0.00 | 44 | 1008.0 |
| 20260508115345 | 46 | 328 | 1.0 | 3.0 | 0.00 | 0.00 | 0.00 | 45 | 1007.9 |
| 20260508114843 | 46 | 188 | 1.0 | 3.0 | 0.00 | 0.00 | 0.00 | 46 | 1007.9 |
| 20260508114340 | 45 | 250 | 0.0 | 3.0 | 0.00 | 0.00 | 0.00 | 46 | 1007.9 |
| 20260508113839 | 44 | 188 | 0.0 | 4.0 | 0.00 | 0.00 | 0.00 | 49 | 1007.9 |
| 20260508113337 | 44 | 191 | 1.0 | 4.0 | 0.00 | 0.00 | 0.00 | 50 | 1007.9 |
| 20260508112836 | 43 | 237 | 0.0 | 4.0 | 0.00 | 0.00 | 0.00 | 52 | 1007.9 |
| 20260508112329 | 42 | 215 | 0.0 | 1.0 | 0.00 | 0.00 | 0.00 | 52 | 1007.9 |
| 20260508111822 | 42 | 215 | 0.0 | 2.0 | 0.00 | 0.00 | 0.00 | 53 | 1008.0 |
| 20260508111316 | 41 | 215 | 1.0 | 2.0 | 0.00 | 0.00 | 0.00 | 53 | 1007.8 |
| 20260508110854 | 40 | 215 | 0.0 | 2.0 | 0.00 | 0.00 | 0.00 | 56 | 1007.7 |
| 20260508105758 | 39 | 245 | 0.0 | 2.0 | 0.00 | 0.00 | 0.00 | 58 | 1007.6 |
| 20260508105252 | 39 | 245 | 1.0 | 2.0 | 0.00 | 0.00 | 0.00 | 59 | 1007.6 |
| 20260508105018 | 38 | 245 | 1.0 | 2.0 | 0.00 | 0.00 | 0.00 | 59 | 1007.6 |
| 20260508104241 | 37 | 245 | 1.0 | 3.0 | 0.00 | 0.00 | 0.00 | 59 | 1007.6 |
| 20260508103734 | 37 | 245 | 1.0 | 3.0 | 0.00 | 0.00 | 0.00 | 61 | 1007.7 |
| 20260508103228 | 36 | 262 | 1.0 | 2.0 | 0.00 | 0.00 | 0.00 | 61 | 1007.7 |
| 20260508102722 | 36 | 262 | 1.0 | 2.0 | 0.00 | 0.00 | 0.00 | 62 | 1007.7 |
| 20260508102216 | 35 | 262 | 1.0 | 2.0 | 0.00 | 0.00 | 0.00 | 61 | 1007.5 |
| 20260508102145 | 35 | 262 | 0.0 | 2.0 | 0.00 | 0.00 | 0.00 | 62 | 1007.4 |
| 20260508101204 | 35 | 262 | 0.0 | 2.0 | 0.00 | 0.00 | 0.00 | 61 | 1007.4 |
| 20260508100658 | 35 | 262 | 0.0 | 2.0 | 0.00 | 0.00 | 0.00 | 61 | 1007.3 |
| 20260508100152 | 35 | 262 | 0.0 | 2.0 | 0.00 | 0.00 | 0.00 | 60 | 1007.2 |
| 20260508095646 | 35 | 262 | 0.0 | 2.0 | 0.00 | 0.00 | 0.00 | 60 | 1007.0 |
| 20260508095141 | 35 | 262 | 0.0 | 2.0 | 0.00 | 0.00 | 0.00 | 60 | 1007.0 |
| 20260508094634 | 35 | 262 | 1.0 | 2.0 | 0.00 | 0.00 | 0.00 | 60 | 1007.1 |
| 20260508094128 | 36 | 262 | 1.0 | 2.0 | 0.00 | 0.00 | 0.00 | 60 | 1007.0 |
| 20260508093622 | 35 | 262 | 1.0 | 2.0 | 0.00 | 0.00 | 0.00 | 60 | 1007.1 |
| 20260508093334 | 35 | 262 | 1.0 | 2.0 | 0.00 | 0.00 | 0.00 | 61 | 1006.9 |
| 20260508092834 | 35 | 262 | 0.0 | 2.0 | 0.00 | 0.00 | 0.00 | 61 | 1006.9 |
| 20260508092104 | 35 | 262 | 0.0 | 1.0 | 0.00 | 0.00 | 0.00 | 60 | 1006.9 |
| 20260508091558 | 36 | 262 | 0.0 | 0.0 | 0.00 | 0.00 | 0.00 | 60 | 1006.9 |
| 20260508091051 | 36 | 262 | 0.0 | 2.0 | 0.00 | 0.00 | 0.00 | 59 | 1006.9 |
| 20260508090546 | 35 | 262 | 0.0 | 2.0 | 0.00 | 0.00 | 0.00 | 60 | 1006.7 |
| 20260508090040 | 35 | 262 | 0.0 | 2.0 | 0.00 | 0.00 | 0.00 | 60 | 1006.6 |
| 20260508085759 | 35 | 262 | 1.0 | 2.0 | 0.00 | 0.00 | 0.00 | 61 | 1006.5 |
| 20260508085028 | 35 | 262 | 1.0 | 2.0 | 0.00 | 0.00 | 0.00 | 62 | 1006.5 |
| 20260508084522 | 34 | 262 | 0.0 | 2.0 | 0.00 | 0.00 | 0.00 | 64 | 1006.5 |
| 20260508084016 | 34 | 262 | 0.0 | 2.0 | 0.00 | 0.00 | 0.00 | 65 | 1006.4 |
| 20260508083510 | 34 | 262 | 1.0 | 2.0 | 0.00 | 0.00 | 0.00 | 65 | 1006.3 |
| 20260508083004 | 34 | 262 | 1.0 | 2.0 | 0.00 | 0.00 | 0.00 | 65 | 1006.4 |
| 20260508082458 | 34 | 262 | 1.0 | 2.0 | 0.00 | 0.00 | 0.00 | 66 | 1006.3 |
| 20260508081952 | 34 | 262 | 0.0 | 2.0 | 0.00 | 0.00 | 0.00 | 65 | 1006.3 |
| 20260508081446 | 34 | 262 | 0.0 | 0.0 | 0.00 | 0.00 | 0.00 | 65 | 1006.3 |
| 20260508080940 | 35 | 262 | 0.0 | 0.0 | 0.00 | 0.00 | 0.00 | 65 | 1006.3 |
| 20260508080434 | 35 | 262 | 0.0 | 0.0 | 0.00 | 0.00 | 0.00 | 64 | 1006.3 |
| 20260508075928 | 35 | 262 | 0.0 | 0.0 | 0.00 | 0.00 | 0.00 | 64 | 1006.2 |
| 20260508075422 | 35 | 262 | 0.0 | 0.0 | 0.00 | 0.00 | 0.00 | 62 | 1006.1 |
| 20260508074916 | 35 | 262 | 0.0 | 0.0 | 0.00 | 0.00 | 0.00 | 63 | 1006.1 |
| 20260508074410 | 35 | 262 | 0.0 | 0.0 | 0.00 | 0.00 | 0.00 | 64 | 1006.1 |
| 20260508073904 | 35 | 262 | 0.0 | 0.0 | 0.00 | 0.00 | 0.00 | 63 | 1006.0 |
| 20260508073358 | 35 | 262 | 0.0 | 0.0 | 0.00 | 0.00 | 0.00 | 63 | 1005.9 |
| 20260508072852 | 36 | 262 | 0.0 | 0.0 | 0.00 | 0.00 | 0.00 | 63 | 1005.9 |
| 20260508072346 | 36 | 262 | 0.0 | 0.0 | 0.00 | 0.00 | 0.00 | 63 | 1005.9 |
| 20260508071839 | 36 | 262 | 0.0 | 0.0 | 0.00 | 0.00 | 0.00 | 62 | 1006.0 |
| 20260508071552 | 36 | 262 | 0.0 | 0.0 | 0.00 | 0.00 | 0.00 | 60 | 1006.1 |
| 20260508071054 | 37 | 262 | 0.0 | 0.0 | 0.00 | 0.00 | 0.00 | 60 | 1006.0 |
| 20260508070322 | 37 | 262 | 0.0 | 0.0 | 0.00 | 0.00 | 0.00 | 60 | 1006.0 |
| 20260508065816 | 37 | 262 | 0.0 | 0.0 | 0.00 | 0.00 | 0.00 | 59 | 1006.0 |
| 20260508065310 | 38 | 262 | 0.0 | 0.0 | 0.00 | 0.00 | 0.00 | 58 | 1006.1 |
| 20260508065020 | 38 | 262 | 0.0 | 0.0 | 0.00 | 0.00 | 0.00 | 57 | 1006.1 |
| 20260508064258 | 38 | 262 | 0.0 | 0.0 | 0.00 | 0.00 | 0.00 | 58 | 1006.1 |
| 20260508063752 | 38 | 262 | 0.0 | 0.0 | 0.00 | 0.00 | 0.00 | 58 | 1006.3 |
| 20260508063246 | 39 | 262 | 0.0 | 0.0 | 0.00 | 0.00 | 0.00 | 57 | 1006.3 |
| 20260508062740 | 39 | 262 | 0.0 | 0.0 | 0.00 | 0.00 | 0.00 | 54 | 1006.4 |
| 20260508062234 | 40 | 262 | 0.0 | 0.0 | 0.00 | 0.00 | 0.00 | 55 | 1006.4 |
| 20260508061728 | 40 | 262 | 0.0 | 0.0 | 0.00 | 0.00 | 0.00 | 53 | 1006.5 |
| 20260508061222 | 40 | 262 | 0.0 | 0.0 | 0.00 | 0.00 | 0.00 | 53 | 1006.6 |
| 20260508060716 | 41 | 262 | 0.0 | 0.0 | 0.00 | 0.00 | 0.00 | 53 | 1006.5 |
| 20260508060432 | 41 | 262 | 0.0 | 0.0 | 0.00 | 0.00 | 0.00 | 50 | 1006.7 |
| 20260508055704 | 41 | 262 | 0.0 | 1.0 | 0.00 | 0.00 | 0.00 | 50 | 1006.7 |
| 20260508055158 | 41 | 262 | 0.0 | 1.0 | 0.00 | 0.00 | 0.00 | 50 | 1006.7 |
| 20260508054917 | 41 | 262 | 0.0 | 1.0 | 0.00 | 0.00 | 0.00 | 50 | 1006.7 |
| 20260508054146 | 41 | 262 | 0.0 | 1.0 | 0.00 | 0.00 | 0.00 | 51 | 1006.8 |
| 20260508053640 | 41 | 262 | 0.0 | 1.0 | 0.00 | 0.00 | 0.00 | 51 | 1006.8 |
| 20260508053134 | 41 | 262 | 0.0 | 0.0 | 0.00 | 0.00 | 0.00 | 51 | 1006.8 |
| 20260508052628 | 41 | 262 | 0.0 | 0.0 | 0.00 | 0.00 | 0.00 | 52 | 1006.8 |
| 20260508052122 | 42 | 262 | 0.0 | 0.0 | 0.00 | 0.00 | 0.00 | 51 | 1006.9 |
| 20260508051616 | 42 | 262 | 0.0 | 1.0 | 0.00 | 0.01 | 0.00 | 52 | 1007.0 |
| 20260508051331 | 42 | 262 | 0.0 | 1.0 | 0.00 | 0.01 | 0.00 | 50 | 1007.0 |
| 20260508050611 | 42 | 262 | 0.0 | 1.0 | 0.00 | 0.01 | 0.00 | 49 | 1007.0 |
| 20260508050107 | 41 | 262 | 0.0 | 1.0 | 0.00 | 0.01 | 0.00 | 49 | 1007.1 |
| 20260508045606 | 41 | 262 | 0.0 | 0.0 | 0.00 | 0.01 | 0.00 | 50 | 1007.2 |
| 20260508045102 | 42 | 262 | 0.0 | 0.0 | 0.00 | 0.01 | 0.00 | 52 | 1007.1 |
| 20260508044602 | 42 | 262 | 0.0 | 0.0 | 0.00 | 0.01 | 0.00 | 52 | 1007.1 |
| 20260508044058 | 42 | 262 | 0.0 | 1.0 | 0.00 | 0.01 | 0.00 | 52 | 1007.0 |
| 20260508043559 | 42 | 262 | 0.0 | 1.0 | 0.00 | 0.01 | 0.00 | 52 | 1007.0 |
| 20260508043057 | 42 | 262 | 0.0 | 0.0 | 0.00 | 0.01 | 0.00 | 53 | 1007.1 |
| 20260508042557 | 42 | 262 | 0.0 | 0.0 | 0.00 | 0.01 | 0.00 | 50 | 1007.0 |
| 20260508042056 | 42 | 262 | 0.0 | 0.0 | 0.00 | 0.01 | 0.00 | 52 | 1007.1 |
| 20260508041819 | 42 | 262 | 0.0 | 0.0 | 0.00 | 0.01 | 0.00 | 54 | 1007.1 |
| 20260508041056 | 43 | 262 | 0.0 | 2.0 | 0.00 | 0.02 | 0.00 | 54 | 1007.3 |
| 20260508040813 | 43 | 262 | 0.0 | 2.0 | 0.00 | 0.02 | 0.00 | 56 | 1007.3 |
| 20260508040056 | 43 | 262 | 0.0 | 1.0 | 0.00 | 0.03 | 0.00 | 55 | 1007.3 |
| 20260508035550 | 44 | 262 | 0.0 | 1.0 | 0.00 | 0.04 | 0.03 | 55 | 1007.3 |
| 20260508035044 | 44 | 262 | 0.0 | 0.0 | 0.00 | 0.05 | 0.03 | 53 | 1007.3 |
| 20260508034538 | 44 | 262 | 0.0 | 1.0 | 0.00 | 0.06 | 0.03 | 52 | 1007.3 |
| 20260508034032 | 44 | 262 | 0.0 | 1.0 | 0.00 | 0.06 | 0.03 | 51 | 1007.3 |
| 20260508033744 | 44 | 262 | 0.0 | 1.0 | 0.00 | 0.06 | 0.03 | 51 | 1007.3 |
| 20260508033020 | 44 | 262 | 0.0 | 1.0 | 0.00 | 0.06 | 0.03 | 51 | 1007.2 |
| 20260508032514 | 44 | 262 | 0.0 | 2.0 | 0.00 | 0.06 | 0.03 | 50 | 1007.3 |
| 20260508032008 | 44 | 274 | 0.0 | 2.0 | 0.00 | 0.06 | 0.03 | 52 | 1007.1 |
| 20260508031503 | 43 | 274 | 0.0 | 2.0 | 0.00 | 0.06 | 0.03 | 51 | 1007.1 |
| 20260508031442 | 43 | 26 | 0.0 | 1.0 | 0.00 | 0.06 | 0.03 | 56 | 1007.2 |
| 20260508030450 | 43 | 26 | 0.0 | 1.0 | 0.00 | 0.06 | 0.03 | 57 | 1007.2 |
| 20260508025944 | 43 | 26 | 0.0 | 1.0 | 0.00 | 0.06 | 0.03 | 53 | 1007.1 |
| 20260508025438 | 43 | 26 | 0.0 | 1.0 | 0.00 | 0.06 | 0.03 | 55 | 1007.1 |
| 20260508024932 | 43 | 26 | 0.0 | 0.0 | 0.00 | 0.06 | 0.03 | 55 | 1007.2 |
| 20260508024426 | 43 | 26 | 0.0 | 1.0 | 0.00 | 0.06 | 0.03 | 53 | 1007.1 |
| 20260508023920 | 44 | 26 | 0.0 | 1.0 | 0.00 | 0.06 | 0.03 | 52 | 1007.1 |
| 20260508023414 | 44 | 26 | 0.0 | 1.0 | 0.00 | 0.06 | 0.03 | 50 | 1007.1 |
| 20260508022914 | 44 | 26 | 0.0 | 0.0 | 0.00 | 0.06 | 0.03 | 50 | 1006.9 |
| 20260508022410 | 44 | 26 | 0.0 | 1.0 | 0.00 | 0.06 | 0.03 | 49 | 1006.9 |
| 20260508021911 | 44 | 26 | 0.0 | 1.0 | 0.00 | 0.06 | 0.03 | 50 | 1006.8 |
| 20260508021407 | 45 | 26 | 0.0 | 0.0 | 0.00 | 0.06 | 0.03 | 52 | 1006.9 |
| 20260508021124 | 45 | 26 | 0.0 | 0.0 | 0.00 | 0.06 | 0.03 | 49 | 1006.9 |
| 20260508020402 | 46 | 26 | 0.0 | 0.0 | 0.00 | 0.06 | 0.03 | 49 | 1006.9 |
| 20260508020353 | 46 | 26 | 0.0 | 0.0 | 0.00 | 0.06 | 0.03 | 47 | 1006.9 |
| 20260508015624 | 46 | 26 | 0.0 | 0.0 | 0.00 | 0.06 | 0.03 | 46 | 1006.8 |
| 20260508014858 | 46 | 26 | 0.0 | 0.0 | 0.00 | 0.06 | 0.03 | 45 | 1006.8 |
| 20260508014359 | 47 | 26 | 0.0 | 0.0 | 0.00 | 0.06 | 0.03 | 43 | 1006.9 |
| 20260508013858 | 47 | 26 | 0.0 | 0.0 | 0.00 | 0.06 | 0.03 | 44 | 1006.6 |
| 20260508013359 | 47 | 26 | 0.0 | 0.0 | 0.00 | 0.06 | 0.03 | 45 | 1006.5 |
| 20260508013123 | 47 | 26 | 0.0 | 0.0 | 0.00 | 0.06 | 0.03 | 43 | 1006.4 |
| 20260508012400 | 48 | 26 | 0.0 | 0.0 | 0.00 | 0.06 | 0.03 | 43 | 1006.5 |
| 20260508011854 | 48 | 26 | 0.0 | 0.0 | 0.00 | 0.06 | 0.03 | 46 | 1006.6 |
| 20260508011355 | 49 | 26 | 0.0 | 0.0 | 0.00 | 0.06 | 0.03 | 42 | 1006.4 |
| 20260508010855 | 49 | 26 | 0.0 | 0.0 | 0.00 | 0.06 | 0.03 | 40 | 1006.3 |
| 20260508010355 | 50 | 26 | 0.0 | 0.0 | 0.00 | 0.06 | 0.03 | 39 | 1006.2 |
| 20260508005856 | 50 | 26 | 0.0 | 0.0 | 0.00 | 0.06 | 0.03 | 38 | 1006.2 |
| 20260508005354 | 51 | 26 | 0.0 | 0.0 | 0.00 | 0.06 | 0.03 | 37 | 1006.1 |
| 20260508004855 | 51 | 26 | 0.0 | 0.0 | 0.00 | 0.06 | 0.03 | 35 | 1005.9 |